Oklahoma City, OK

11:36 AM CDT on June 27, 2017 (GMT -0500)
Will Rogers World

Weather History for KOKC - April, 2013

Change the Weather History Date:

Tuesday, April 9, 2013

  Actual Average Record
Temperature  
Mean Temperature 58 °F 59 °F  
Max Temperature 79 °F 71 °F 92 °F (2011)
Min Temperature 37 °F 48 °F 25 °F (1914)
Degree Days  
Heating Degree Days 7 7  
Month to date heating degree days 104 73  
Since 1 July heating degree days 3149 3232  
Cooling Degree Days 0 1  
Month to date cooling degree days 6 9  
Year to date cooling degree days 10 22  
Growing Degree Days 8 (Base 50)    
Moisture  
Dew Point 54 °F    
Average Humidity 73    
Maximum Humidity 85    
Minimum Humidity 60    
Precipitation  
Precipitation 0.03 in 0.09 in 2.91 in (1944)
Month to date precipitation 2.79 0.79  
Year to date precipitation 7.74 6.82  
Sea Level Pressure  
Sea Level Pressure 29.66 in    
Wind  
Wind Speed 22 mph (South)    
Max Wind Speed 37 mph    
Max Gust Speed 44 mph    
Visibility 9 miles    
Events      
T = Trace of Precipitation, MM = Missing Value Source: NWS Daily Summary

Daily Weather History Graph

Daily Weather History Graph

Search for Another Location

Airport or City:

Trip Planner

Search our weather history database for the weather conditions in past years. The results will help you decide how hot, cold, wet, or windy it might be!

Date:

Astronomy

Apr. 09, 2013 Rise Set
Actual Time 7:05 AM CDT 7:58 PM CDT
Civil Twilight 6:39 AM CDT 8:24 PM CDT
Nautical Twilight 6:09 AM CDT 8:55 PM CDT
Astronomical Twilight 5:37 AM CDT 9:27 PM CDT
Moon 6:28 AM CDT (4/9) 7:35 PM CDT (4/9)
Length of Visible Light 13h 44m
Length of Day
12h 53m
Waning Crescent, 1% of the Moon is Illuminated
Apr 9
Waning Crescent
Apr 10
New
Apr 18
First Quarter
Apr 25
Full
May 2
Last Quarter

Hourly Weather History & Observations

Time (CDT) Temp. Windchill Dew Point Humidity Pressure Visibility Wind Dir Wind Speed Gust Speed Precip Events Conditions
12:52 AM 69.1 °F - 62.1 °F 78% 29.59 in 10.0 mi SSE 17.3 mph 27.6 mph N/A   Overcast
1:52 AM 69.1 °F - 61.0 °F 75% 29.58 in 10.0 mi SSE 21.9 mph 34.5 mph N/A   Overcast
2:52 AM 68.0 °F - 60.1 °F 76% 29.57 in 10.0 mi SSE 17.3 mph 26.5 mph N/A   Overcast
3:52 AM 68.0 °F - 60.1 °F 76% 29.56 in 10.0 mi SSE 20.7 mph - N/A   Overcast
4:52 AM 66.9 °F - 59.0 °F 76% 29.56 in 10.0 mi South 20.7 mph 26.5 mph N/A   Overcast
5:52 AM 66.9 °F - 60.1 °F 79% 29.57 in 10.0 mi SSE 18.4 mph 28.8 mph N/A   Overcast
6:52 AM 66.9 °F - 60.1 °F 79% 29.60 in 10.0 mi South 18.4 mph 26.5 mph N/A   Overcast
7:45 AM 66.2 °F - 60.8 °F 83% 29.63 in 8.0 mi SSE 19.6 mph 27.6 mph N/A   Mostly Cloudy
7:52 AM 66.9 °F - 61.0 °F 81% 29.60 in 7.0 mi SSE 21.9 mph 27.6 mph N/A   Mostly Cloudy
8:16 AM 66.2 °F - 60.8 °F 83% 29.64 in 6.0 mi SSE 18.4 mph 24.2 mph N/A   Haze
8:52 AM 68.0 °F - 62.1 °F 81% 29.61 in 6.0 mi SSE 18.4 mph 24.2 mph N/A   Haze
9:35 AM 69.8 °F - 62.6 °F 78% 29.64 in 6.0 mi SSE 19.6 mph 25.3 mph N/A   Haze
9:52 AM 70.0 °F - 62.1 °F 76% 29.62 in 6.0 mi South 15.0 mph - N/A   Haze
10:25 AM 71.6 °F - 60.8 °F 69% 29.64 in 7.0 mi South 21.9 mph 26.5 mph N/A   Overcast
10:52 AM 73.0 °F - 62.1 °F 68% 29.60 in 7.0 mi South 20.7 mph 33.4 mph N/A   Mostly Cloudy
11:52 AM 73.0 °F - 62.1 °F 68% 29.63 in 8.0 mi South 17.3 mph 26.5 mph N/A   Overcast
12:52 PM 73.0 °F - 62.1 °F 68% 29.63 in 9.0 mi South 19.6 mph 24.2 mph N/A   Overcast
1:52 PM 77.0 °F - 63.0 °F 62% 29.60 in 9.0 mi SSE 19.6 mph 26.5 mph N/A   Mostly Cloudy
2:52 PM 75.9 °F - 62.1 °F 62% 29.61 in 10.0 mi South 15.0 mph 24.2 mph N/A   Mostly Cloudy
3:52 PM 77.0 °F - 62.1 °F 60% 29.59 in 10.0 mi SSE 18.4 mph 28.8 mph N/A   Mostly Cloudy
4:52 PM 75.9 °F - 63.0 °F 64% 29.60 in 10.0 mi SSE 17.3 mph 26.5 mph N/A   Mostly Cloudy
5:24 PM 62.6 °F - 50.0 °F 63% 29.67 in 10.0 mi NNW 12.7 mph 20.7 mph N/A   Mostly Cloudy
5:34 PM 60.8 °F - 48.2 °F 63% 29.67 in 10.0 mi NNW 23.0 mph - N/A   Mostly Cloudy
5:52 PM 59.0 °F - 46.9 °F 64% 29.66 in 10.0 mi NNW 24.2 mph 31.1 mph N/A   Overcast
6:52 PM 57.0 °F - 46.0 °F 67% 29.69 in 10.0 mi NNW 24.2 mph - N/A   Overcast
7:52 PM 50.0 °F - 39.9 °F 68% 29.72 in 10.0 mi NNW 31.1 mph 36.8 mph N/A   Mostly Cloudy
8:52 PM 44.1 °F 34.4 °F 36.0 °F 73% 29.79 in 10.0 mi NNW 27.6 mph 34.5 mph 0.00 in   Overcast
9:03 PM 42.8 °F 32.5 °F 35.6 °F 76% 29.81 in 10.0 mi NNW 28.8 mph 35.7 mph N/A   Overcast
9:52 PM 39.0 °F 27.0 °F 33.1 °F 79% 29.86 in 10.0 mi NW 31.1 mph 41.4 mph N/A   Overcast
10:22 PM 37.4 °F 24.6 °F 32.0 °F 81% 29.86 in 8.0 mi NNW 32.2 mph 40.3 mph N/A   Overcast
10:52 PM 37.0 °F 24.5 °F 32.0 °F 82% 29.85 in 10.0 mi NNW 29.9 mph 41.4 mph N/A   Overcast
11:11 PM 37.4 °F 25.6 °F 32.0 °F 81% 29.86 in 10.0 mi North 26.5 mph 34.5 mph N/A   Overcast
11:52 PM 37.9 °F 27.1 °F 33.1 °F 83% 29.83 in 10.0 mi NNW 23.0 mph 35.7 mph N/A   Overcast